Theta_e
312 313 314 314 314 314 312 312 313 313 313 311 312 313 313 312 312 313 313 313 314 313 312 310 310 309 309 308 308 308 307 306 308 309 311 312 311 311 310 310 309 307 306 305
311 313 314 312 310 311 312 313 314 314 313 310 312 312 312 312 313 313 313 313 314 313 312 311 310 309 308 307 307 306 306 305 305 307 308 309 308 308 308 308 307 306 304 303
314 315 311 311 311 311 313 312 313 314 312 311 311 314 313 314 312 312 312 312 311 310 311 311 309 307 306 305 305 304 304 304 303 304 305 306 304 305 305 305 304 303 302 302
312 311 310 310 311 312 314 313 311 311 311 313 311 315 316 316 316 314 313 310 310 311 309 308 307 305 303 302 302 302 302 302 302 302 303 304 303 304 303 302 302 302 300 300
314 310 310 311 312 310 312 309 309 310 311 311 313 313 319 313 313 313 311 310 309 307 306 305 303 301 300 299 299 299 300 301 300 300 301 302 302 303 303 302 301 300 299 298
310 306 308 310 308 308 308 310 311 309 311 317 318 315 316 315 313 312 310 307 306 305 303 301 299 298 297 297 297 297 298 297 298 299 300 300 300 301 301 300 300 299 298 297
317 317 308 306 309 307 309 311 317 322 321 323 311 315 315 314 312 309 307 305 304 302 301 299 298 297 296 295 295 295 296 295 296 296 297 298 299 299 300 299 299 299 298 297
319 320 310 307 310 314 311 313 323 328 326 326 320 321 319 313 307 306 306 305 303 301 300 298 297 296 296 295 294 294 294 294 294 294 295 295 296 297 298 298 298 298 298 298
318 318 309 305 306 309 310 312 313 315 318 319 319 318 313 309 308 306 305 304 302 299 298 297 296 294 294 294 294 293 293 292 292 293 293 293 294 294 295 296 296 297 297 297
316 321 316 309 306 307 310 311 315 313 321 322 318 317 316 311 309 307 305 302 299 298 297 296 295 293 293 293 293 292 292 291 291 291 291 292 292 293 293 293 294 294 295 295
313 316 317 313 313 314 309 309 309 313 318 322 322 318 313 311 306 305 301 299 297 296 295 295 294 293 292 291 291 291 290 290 290 290 290 290 291 291 292 292 292 292 292 293
313 316 318 315 314 311 310 313 313 316 317 316 317 317 313 306 302 300 297 295 295 294 294 293 292 291 291 290 290 290 290 289 288 288 289 289 289 290 290 291 291 291 291 291
313 318 319 319 315 311 313 314 312 314 315 318 320 318 307 303 298 296 295 293 293 293 291 292 291 291 290 289 289 288 288 288 287 287 287 287 288 288 288 288 288 289 290 290
310 312 315 316 315 313 316 313 310 311 314 315 316 313 309 307 305 297 295 292 293 292 289 290 290 290 289 288 287 287 287 286 286 286 286 286 286 287 287 286 286 286 287 289
308 311 310 309 310 309 309 308 306 306 307 308 308 307 305 303 296 293 290 290 292 292 289 289 289 289 288 287 286 286 286 285 285 285 285 285 285 286 286 285 284 284 285 286
300 306 304 303 303 303 304 301 301 301 301 300 300 302 300 293 292 292 291 289 290 290 289 289 289 288 287 286 286 285 285 285 284 284 284 283 283 284 284 283 282 283 284 285
299 301 302 303 301 298 299 299 299 299 298 298 297 297 293 292 292 291 290 290 290 290 289 289 289 288 287 287 286 285 284 284 283 283 282 282 282 283 283 281 280 281 283 284
296 298 299 300 293 298 297 294 295 295 297 296 295 293 293 292 290 291 291 290 290 290 289 289 288 287 287 286 285 284 283 283 282 282 282 281 281 281 281 279 279 280 282 284
295 295 295 295 296 294 293 293 293 294 294 295 295 293 291 291 291 291 290 290 290 290 289 288 287 286 285 284 284 283 282 282 281 282 281 280 280 279 278 277 278 279 281 282
292 294 294 286 293 293 293 291 289 289 293 290 290 291 290 290 290 290 291 290 289 289 288 287 285 284 284 283 281 281 280 280 280 281 280 279 278 278 276 276 276 277 278 278
291 292 294 295 294 293 293 290 290 292 293 291 291 290 290 290 291 291 291 290 289 288 286 284 284 283 282 281 280 279 279 279 279 278 278 277 277 276 275 274 274 274 274 275
290 291 291 287 291 292 289 289 290 292 291 291 291 291 291 290 290 290 289 289 289 286 284 283 282 281 280 279 278 278 277 277 277 275 275 274 274 273 272 272 272 272 272 274
290 291 291 289 291 290 289 291 291 291 291 291 291 291 290 289 289 289 288 286 284 283 281 280 279 278 277 276 276 275 275 274 273 272 271 271 270 270 269 269 270 270 271 272
290 290 290 290 290 290 291 291 291 291 291 291 291 290 288 287 287 284 283 282 281 279 278 276 275 275 274 273 272 271 270 269 268 268 268 267 267 267 267 267 268 269 270 271
291 290 290 290 290 290 290 291 291 290 290 289 285 284 284 282 282 281 279 278 277 275 274 273 272 271 270 269 268 266 266 265 264 264 264 264 264 265 265 265 266 267 268 269
291 291 290 291 290 290 290 290 290 289 288 283 282 281 279 278 277 276 275 274 273 272 270 269 268 267 266 265 264 264 263 263 262 263 263 263 263 263 264 264 265 265 267 268
Wind_Speed
4 8 13 20 21 21 14 17 21 20 18 15 21 23 19 22 25 27 23 21 16 12 12 14 15 14 13 10 11 13 16 18 20 23 25 27 30 29 31 33 32 31 37 38
4 13 17 10 6 11 17 22 22 22 16 7 17 23 25 25 22 22 22 17 12 7 9 11 15 18 18 14 11 9 11 13 17 19 21 23 20 25 27 26 26 30 32 36
18 11 2 14 13 14 18 16 21 23 16 14 13 13 3 5 9 15 11 10 5 4 11 14 18 20 21 22 20 14 9 9 12 16 15 17 17 16 16 23 24 26 29 35
10 6 7 4 10 15 19 15 16 14 8 9 8 10 12 12 18 12 13 12 14 15 17 16 18 21 23 22 22 19 13 6 6 11 15 19 19 20 19 19 21 24 27 32
5 1 2 7 11 6 9 5 4 4 8 8 5 6 7 5 4 7 11 13 16 16 18 19 20 25 25 30 29 25 22 14 5 6 12 12 18 18 17 15 17 22 22 28
12 1 4 5 3 5 1 4 7 2 4 9 10 8 2 3 2 9 11 14 17 18 17 17 21 25 29 32 30 26 24 23 16 7 7 11 13 16 16 14 14 15 19 24
17 15 3 4 7 2 4 5 5 5 5 7 6 3 7 11 6 12 14 12 13 12 15 19 19 24 29 29 27 26 28 27 23 17 11 11 12 14 17 18 15 16 17 20
11 21 7 7 5 3 5 7 4 6 10 16 12 8 7 5 16 13 14 14 15 18 16 16 18 20 20 21 26 29 29 28 29 25 21 15 12 13 16 16 18 19 21 22
5 8 2 4 1 2 4 6 8 3 5 6 10 17 7 8 9 12 13 14 14 13 13 13 16 20 24 24 22 25 24 24 25 24 25 23 18 15 16 19 20 20 20 21
1 6 6 3 2 7 8 4 7 5 5 9 14 14 10 11 4 7 11 11 11 10 12 12 15 18 19 21 20 20 20 20 20 21 21 20 22 23 19 19 19 21 22 21
8 6 9 1 8 17 5 6 6 2 4 4 4 9 2 3 5 7 7 9 11 12 12 12 15 19 19 19 21 22 24 25 25 24 21 19 19 21 20 17 17 18 20 21
8 5 11 23 21 8 6 10 13 8 9 10 13 18 12 5 7 5 5 6 7 8 10 11 14 16 18 19 21 22 22 23 24 24 23 22 20 20 21 23 24 22 19 19
4 3 7 7 8 3 8 11 13 16 12 19 18 15 6 8 8 6 4 2 2 4 7 8 9 11 14 18 20 20 20 21 22 23 22 22 23 22 23 23 24 24 23 21
2 4 9 10 14 11 5 3 6 4 4 8 7 10 14 17 20 5 3 2 2 3 6 8 8 11 13 12 15 17 18 19 21 22 23 23 24 22 23 23 25 26 28 26
2 9 15 17 18 15 14 13 16 17 16 9 19 17 21 18 4 2 1 3 6 6 4 6 7 9 14 15 15 17 17 18 21 21 22 24 24 23 24 24 26 29 27 27
0 6 6 9 12 13 10 14 20 21 23 23 25 26 12 1 1 4 5 5 6 5 6 8 8 10 11 12 15 18 19 19 19 19 21 24 26 25 25 28 30 27 25 24
3 3 6 17 16 12 12 21 20 23 24 23 21 10 3 1 6 9 7 9 10 8 10 10 9 13 14 15 15 16 19 22 23 22 21 21 22 25 25 28 28 27 27 24
13 13 7 10 5 19 13 7 11 15 10 3 3 5 3 5 9 10 9 12 13 11 11 11 12 14 15 17 18 18 17 18 19 24 28 29 25 26 26 29 29 30 29 28
17 14 7 6 12 16 18 9 6 6 10 8 7 5 4 8 8 16 11 14 15 14 13 15 14 16 18 18 18 20 22 22 22 22 21 22 25 29 31 32 30 30 30 30
8 13 9 3 6 9 6 2 3 3 8 7 4 4 7 6 10 14 17 14 14 18 14 14 18 19 20 22 19 19 22 23 24 25 26 26 26 26 30 33 37 35 30 35
3 3 13 13 11 9 5 4 5 5 5 7 6 10 11 11 13 17 16 16 19 15 15 14 19 21 23 24 23 25 26 25 25 25 27 31 29 30 30 33 34 35 37 36
5 5 4 1 4 11 5 6 6 2 4 12 12 14 13 15 16 16 17 16 13 13 17 20 19 23 28 26 24 28 30 30 28 27 30 31 33 33 34 35 35 35 34 34
7 9 6 8 6 2 6 6 11 16 18 18 14 14 14 14 15 15 13 9 9 14 17 19 20 24 27 27 25 28 33 34 36 35 35 36 35 35 35 35 35 32 31 30
17 16 11 12 19 20 20 21 21 19 16 14 12 11 9 12 8 7 7 8 10 16 17 19 21 24 29 28 29 30 34 35 37 38 37 36 35 35 34 33 33 32 31 29
13 5 10 14 20 19 21 20 22 20 15 7 1 1 2 3 6 7 8 10 13 16 18 19 21 25 30 32 32 32 34 34 36 36 35 34 32 32 32 31 31 31 33 33
15 19 12 15 21 17 22 18 16 12 10 4 3 3 1 2 6 8 9 12 15 17 20 22 24 25 28 31 33 34 33 32 33 33 31 30 32 32 31 31 32 33 39 41
Wind_Direction
182 209 210 226 227 247 283 272 273 278 279 294 282 291 296 289 279 276 285 278 281 288 329 329 319 315 307 286 269 251 238 231 220 219 219 222 224 224 222 219 218 215 215 212
176 236 237 261 263 251 259 268 276 280 275 287 290 297 289 274 276 275 278 286 297 333 3 22 22 26 16 0 340 305 264 241 227 226 225 223 234 238 237 232 227 219 216 214
246 267 261 219 240 259 249 264 275 284 307 277 293 281 269 280 268 280 284 285 319 55 67 41 32 25 22 19 13 359 317 270 242 229 228 232 241 234 234 232 232 226 220 218
256 299 236 214 241 246 277 263 267 282 299 291 355 295 298 264 274 322 40 63 94 67 45 37 36 34 26 18 21 17 7 348 271 237 230 225 232 239 237 233 235 233 226 222
282 229 185 224 241 220 261 0 302 296 276 297 257 260 314 252 271 60 67 90 71 39 44 36 30 30 28 27 24 18 23 25 1 264 240 248 253 254 255 253 232 223 227 227
268 231 247 253 188 216 234 297 278 202 264 261 261 216 325 356 122 62 69 68 41 43 45 38 34 36 32 28 27 27 31 27 15 0 297 260 261 268 261 254 245 231 229 226
307 286 221 229 247 154 224 305 308 271 221 271 108 284 268 277 354 60 87 59 55 48 43 34 31 29 27 28 29 32 31 30 28 22 353 323 298 277 267 266 251 247 234 231
287 301 200 164 228 215 173 176 203 271 283 293 313 255 259 243 90 78 55 48 40 37 36 30 28 28 28 28 28 26 27 29 25 19 12 359 331 306 292 279 263 254 244 244
238 251 350 227 181 206 104 208 234 244 273 276 260 261 242 102 85 61 54 42 35 28 28 24 20 21 19 23 22 25 25 23 24 22 14 14 0 334 309 295 279 267 259 258
254 269 240 213 193 216 210 206 223 239 246 244 261 264 265 182 74 53 49 31 20 20 24 20 17 18 20 20 18 18 19 20 18 17 21 15 6 2 346 317 293 279 271 258
175 219 283 184 229 260 206 213 212 122 225 257 274 274 76 58 111 60 33 18 13 16 20 17 13 13 12 14 14 12 10 9 9 10 12 12 9 7 -0 347 324 303 290 278
208 244 258 265 271 258 270 252 215 228 232 231 248 249 324 113 111 76 50 22 15 11 6 7 10 4 6 7 5 5 3 3 2 359 359 0 1 3 0 356 351 338 311 292
46 282 271 249 246 328 256 261 253 262 273 253 258 256 109 138 134 79 81 61 12 8 4 1 5 3 359 356 355 355 355 355 354 354 357 355 355 356 354 350 346 342 337 314
20 210 239 285 298 301 268 312 317 284 281 328 293 311 307 306 309 23 124 282 283 338 1 341 350 348 350 353 348 344 345 350 349 350 350 351 348 348 346 343 341 339 337 329
237 260 272 277 283 285 274 274 275 266 274 265 283 278 276 291 337 34 47 279 249 265 307 327 333 333 337 337 338 332 334 340 343 342 341 341 339 337 338 340 339 337 332 326
127 271 289 272 275 264 267 271 269 273 271 265 263 268 295 41 312 279 293 306 282 295 311 318 321 316 313 314 316 320 320 323 330 326 325 328 331 329 330 331 332 330 326 322
263 267 268 271 283 311 272 249 266 273 272 269 269 300 90 302 300 312 313 316 305 305 327 323 299 291 287 296 296 297 303 313 318 314 313 317 317 319 321 323 322 322 318 318
248 248 256 272 317 263 279 313 269 264 280 162 129 169 206 276 296 293 292 289 289 275 296 308 308 302 293 286 286 289 293 296 298 300 309 316 315 315 314 316 314 315 315 311
233 252 253 248 248 286 299 247 230 227 283 198 173 182 295 285 284 281 272 270 275 261 285 298 305 306 303 299 299 295 293 294 290 285 285 294 301 305 308 308 308 307 306 303
217 229 227 161 243 262 300 147 117 140 274 178 187 221 290 292 283 294 311 304 285 264 276 299 309 309 306 308 306 294 288 288 286 289 289 288 290 289 296 301 302 302 298 295
175 197 223 232 249 268 248 154 157 235 302 163 209 259 273 270 264 282 291 287 280 276 293 308 309 305 304 311 312 301 298 291 292 287 286 288 288 287 287 289 290 294 295 294
241 228 201 184 250 268 149 124 218 271 275 298 290 287 284 285 279 281 280 287 293 288 307 315 313 307 307 312 310 302 299 304 303 298 291 286 286 286 286 286 285 285 284 284
254 224 247 215 243 251 192 253 262 282 285 285 285 287 287 279 278 285 294 305 302 310 313 314 310 308 306 309 310 304 303 309 306 300 294 291 289 286 284 282 282 281 279 274
257 254 243 260 255 258 268 268 271 275 275 277 280 284 285 276 293 288 302 307 312 314 314 315 313 307 304 309 307 303 304 304 300 296 295 296 293 291 287 282 278 276 274 273
244 241 245 255 260 270 262 262 267 269 274 263 175 246 263 293 292 306 309 308 308 311 313 312 307 302 301 306 306 304 301 302 299 298 299 298 295 291 288 281 276 273 270 268
245 248 248 252 264 261 271 271 275 258 252 192 195 224 205 318 305 316 306 309 312 313 313 308 304 301 299 301 299 300 301 300 297 295 295 294 293 291 287 285 284 277 276 276